Montrose, CO

7:42 PM MDT on May 26, 2018 (GMT -0600)
Montrose Regional

Weather History for KMTJ - September, 2013

Change the Weather History Date:

Friday, September 6, 2013

  Actual Average Record
Temperature  
Mean Temperature 75 °F 66 °F  
Max Temperature 92 °F 81 °F 92 °F (2013)
Min Temperature 57 °F 51 °F 41 °F (2004)
Degree Days  
Heating Degree Days 0 1  
Month to date heating degree days 0 6  
Since 1 July heating degree days 2 11  
Cooling Degree Days 10 2  
Month to date cooling degree days 62 16  
Year to date cooling degree days 863 621  
Growing Degree Days 24 (Base 50)    
Moisture  
Dew Point 46 °F    
Average Humidity 46    
Maximum Humidity 78    
Minimum Humidity 14    
Precipitation  
Precipitation 0.00 in 0.03 in 0.40 in (1997)
Month to date precipitation 0.18 0.20  
Year to date precipitation 6.20 7.53  
Sea Level Pressure  
Sea Level Pressure 30.01 in    
Wind  
Wind Speed 7 mph (SSE)    
Max Wind Speed 30 mph    
Max Gust Speed 36 mph    
Visibility 10 miles    
Events      
T = Trace of Precipitation, MM = Missing Value Source: NWS Daily Summary

Daily Weather History Graph

Daily Weather History Graph

Search for Another Location

Airport or City:

Astronomy

Sep. 06, 2013 Rise Set
Actual Time 6:45 AM MDT 7:33 PM MDT
Civil Twilight 6:18 AM MDT 8:00 PM MDT
Nautical Twilight 5:46 AM MDT 8:31 PM MDT
Astronomical Twilight 5:13 AM MDT 9:04 PM MDT
Moon 7:59 AM MDT (9/6) 8:01 PM MDT (9/6)
Length of Visible Light 13h 41m
Length of Day
12h 47m
New Moon, 2% of the Moon is Illuminated
Sep 6
New Moon
Sep 12
First Quarter
Sep 19
Full
Sep 26
Last Quarter
Oct 4
New

Hourly Weather History & Observations

Time (MDT) Temp. Dew Point Humidity Pressure Visibility Wind Dir Wind Speed Gust Speed Precip Events Conditions
12:53 AM 69.1 °F 54.0 °F 58% 30.02 in 10.0 mi SSE 6.9 mph - N/A   Clear
1:53 AM 66.0 °F 54.0 °F 65% 30.02 in 10.0 mi SE 5.8 mph - N/A   Clear
2:53 AM 66.0 °F 53.1 °F 63% 30.02 in 10.0 mi SE 11.5 mph - N/A   Clear
3:53 AM 61.0 °F 53.1 °F 75% 30.04 in 10.0 mi SE 4.6 mph - N/A   Clear
4:53 AM 60.1 °F 52.0 °F 75% 30.04 in 10.0 mi SSE 4.6 mph - N/A   Clear
5:53 AM 61.0 °F 51.1 °F 70% 30.05 in 10.0 mi SSE 6.9 mph - N/A   Clear
6:53 AM 57.9 °F 48.9 °F 72% 30.08 in 10.0 mi SE 8.1 mph - N/A   Clear
7:53 AM 63.0 °F 48.0 °F 58% 30.09 in 10.0 mi ESE 6.9 mph - N/A   Mostly Cloudy
8:53 AM 66.9 °F 48.9 °F 52% 30.10 in 10.0 mi SW 3.5 mph - N/A   Scattered Clouds
9:27 AM 69.8 °F 48.2 °F 46% 30.34 in 4.0 mi Calm Calm - N/A   Haze
9:53 AM 73.0 °F 48.0 °F 41% 30.09 in 6.0 mi Calm Calm - N/A   Haze
10:53 AM 79.0 °F 50.0 °F 36% 30.07 in 10.0 mi Variable 5.8 mph - N/A   Clear
11:53 AM 81.0 °F 52.0 °F 36% 30.04 in 10.0 mi North 4.6 mph - N/A   Clear
12:53 PM 86.0 °F 42.1 °F 21% 29.99 in 10.0 mi Variable 5.8 mph - N/A   Clear
1:53 PM 88.0 °F 39.0 °F 18% 29.97 in 10.0 mi West 4.6 mph - N/A   Clear
2:53 PM 91.0 °F 36.0 °F 14% 29.92 in 10.0 mi NW 4.6 mph - N/A   Clear
3:53 PM 91.0 °F 36.0 °F 14% 29.90 in 10.0 mi WNW 6.9 mph - N/A   Clear
4:53 PM 91.0 °F 36.0 °F 14% 29.88 in 10.0 mi NW 8.1 mph - N/A   Clear
5:53 PM 91.0 °F 37.9 °F 15% 29.87 in 10.0 mi North 5.8 mph - N/A   Clear
6:53 PM 88.0 °F 39.0 °F 18% 29.89 in 10.0 mi Calm Calm - N/A   Clear
7:32 PM 78.8 °F 46.4 °F 32% 30.17 in 9.0 mi South 24.2 mph 35.7 mph N/A   Overcast
7:53 PM 78.1 °F 46.9 °F 33% 29.94 in 10.0 mi South 16.1 mph 28.8 mph N/A   Overcast
8:53 PM 78.1 °F 44.1 °F 30% 29.94 in 10.0 mi South 13.8 mph - N/A   Clear
9:53 PM 75.0 °F 46.9 °F 37% 29.94 in 10.0 mi SE 12.7 mph - N/A   Clear
10:53 PM 75.0 °F 46.0 °F 36% 29.93 in 10.0 mi SE 9.2 mph - N/A   Clear
11:53 PM 72.0 °F 48.0 °F 43% 29.94 in 10.0 mi SE 8.1 mph - N/A   Clear